OBJECT K, 47941

Orbit data source: Space-Track

You're viewing an Uncataloged Satellite

Recently launched and/or uncataloged satellites may have evolving metadata. Metadata may include but not limited to: Owner, Maufacturer, Bus, Motor, and Mission.

OBJECT K, 47941 is a satellite in SSO that was launched on Mon, 22 Mar 2021 UTC via a SOYUZ-2-1A launch vehicle from the Tyuratam Missile And Space Complex (TTMTR). Unknown objects in Earth's orbit typically refer to objects detected orbiting the Earth but have not yet been identified or cataloged. These objects could be anything from previously untracked satellites, spent rocket stages, debris from satellite collisions, or even natural meteoroids temporarily captured by Earth's gravity.

Not visible in the next 10 days
Identifier
47941, 2021-022K
Orbit
SSO
Country
Flag of TBDTBD
Related business
Manufacturer
Roma La Sapienza
Mission
Operational Amateur Science
Bus & Motor
CUBESAT 1U, Unknown motor
Mass
1 kg wet, 1 kg dry
Launch date (UTC)
2021-03-22 (5 years ago)
Launch vehicle
SOYUZ-2-1A
Launch site
Tyuratam Missile And Space Complex (TTMTR)
Object type
Unknown
Shape & HBR
Box, 0.1 m
Radar Cross Section
0.015 m², Small (<0.1 m²)

Expand to show TLE details & history
Last TLE update: 18 hours ago

TLE from 18 hours ago
0 OBJECT K
1 47941U 21022K   25348.95669481  .00072990  00000-0  67208-3 0  9995
2 47941  97.4053 259.7457 0006161  21.7073 338.4448 15.67403715262438
Epoch: 2025-12-14T22:57Z
TLE epoch observation values (Epoch: 2025-12-14T22:57:38.431Z)
Latitude
-0°
Longitude
-168.5266°
Altitude
365.624 km
Speed
7.692 km/s
True Right ascension
17h 18m 58s
True Declination
0° 00' 00"
Sunlit
Object was in daylight at epoch
Visualization orbit readout
Latitude
Unknown
Longitude
Unknown
Altitude
Unknown
Speed
Unknown
Apparent Right ascension
Unknown
Apparent Declination
Unknown
Sunlit
N/A
Visualization observer readout
Local Sidereal Time
15:09:26
Azimuth
Unknown
Elevation
Unknown
Doppler factor
Unknown
Orbital elements
Apogee altitude
367.391 km
Perigee altitude
359.084 km
Semi-major axis
6,741.374 km
Eccentricity
0.00062
Inclination
97.4053°
RAAN
259.7457°
Arg. of periapsis
21.7073°
True anomaly
338.41884°
Mean anomaly
338.4448°
Eccentric anomaly
338.43182°
Mean motion
3.92121 °/min
Orbital period
91.81 mins
BSTAR
0.00067208
Loading maneuver chart data...
Computing Atmospheric mass density...
Loading historical data...
Loading historical data...
Loading historical data...
Loading historical data...
Loading historical data...
Loading historical data...
Loading historical data...

Documentation

Showing up to 5 results
|